• Join FlightAware (Why Join?)
  • Login
  • US Flag 
06:55AM EST


 

Airport Tracker/Info


-or-


 

Live Flight TrackerFlight Track Log ✈ SWA561 ✈ 29-Apr-2013 ✈ KLAX - KTUS

Flight Track Log - Related Links

Times and Time Zones

All times are in EDT time to prevent confusion due to time zone crossing. See the SWA561 flight status page for this flight to view local times or setup timezone preferences in your user account.

Time Position Orientation Groundspeed Altitude Reporting Facility
EDT Latitude Longitude Course Direction KTS MPH feet Rate Location/Type
10:29PM 33.9439 -118.4808 243° Southwest 182 209 2,300  Level Los Angeles Center
10:30PM 33.9153 -118.5381 239° Southwest 253 291 4,700 3,366 Climbing Los Angeles Center
10:31PM 33.8256 -118.5453 184° South 281 323 9,200 3,484 Climbing Los Angeles Center
10:32PM 33.7431 -118.5303 171° South 308 354 11,900 2,244 Climbing Los Angeles Center
10:33PM 33.6842 -118.4778 143° Southeast 353 406 13,800 2,683 Climbing Los Angeles Center
10:34PM 33.6333 -118.3473 90° East  Level FlightAware Approximate
10:34PM 33.6456 -118.3408 109° East 373 429 17,400  Level Los Angeles Center
10:35PM 33.6442 -118.1878 91° East 394 453 20,900 1,805 Climbing Los Angeles Center
10:36PM 33.6444 -118.0561 90° East 399 459 21,100 1,415 Climbing Los Angeles Center
10:37PM 33.6447 -117.9236 90° East 400 460 23,800 2,468 Climbing Los Angeles Center
10:38PM 33.6444 -117.7872 90° East 407 468 26,200 2,244 Climbing Los Angeles Center
10:39PM 33.6436 -117.6467 90° East 418 481 28,400 1,951 Climbing Los Angeles Center
10:40PM 33.6431 -117.5022 90° East 430 495 30,200 1,707 Climbing Los Angeles Center
10:41PM 33.6425 -117.3517 90° East 445 512 31,900 2,195 Climbing Los Angeles Center
10:42PM 33.6236 -117.1742 97° East 450 518 34,700 2,129 Climbing Los Angeles Center
10:43PM 33.6044 -117.0303 99° East 441 507 36,300 1,366 Climbing Los Angeles Center
10:44PM 33.5878 -116.9019 99° East 439 505 37,500 1,220 Climbing Los Angeles Center
10:45PM 33.5647 -116.7258 99° East 443 510 38,800 726 Climbing Los Angeles Center
10:46PM 33.5444 -116.5786 99° East 446 513 39,000 98 Climbing Los Angeles Center
10:47PM 33.5242 -116.4308 99° East 447 514 39,000  Level Los Angeles Center
10:48PM 33.5047 -116.2839 99° East 445 512 39,000  Level Los Angeles Center
10:49PM 33.4828 -116.1353 100° East 450 518 39,000  Level Los Angeles Center
10:50PM 33.4636 -115.9878 99° East 449 517 39,000  Level Los Angeles Center
10:51PM 33.4425 -115.8394 100° East 450 518 39,000  Level Los Angeles Center
10:52PM 33.4208 -115.6911 100° East 451 519 39,000  Level Los Angeles Center
10:53PM 33.3992 -115.5411 100° East 456 525 39,000  Level Los Angeles Center
10:54PM 33.3733 -115.3619 100° East 456 525 39,000  Level Los Angeles Center
10:55PM 33.3508 -115.2119 100° East 458 527 39,000  Level Los Angeles Center
10:56PM 33.3286 -115.0625 100° East 458 527 39,000  Level Los Angeles Center
10:57PM 33.3081 -114.9114 99° East 462 532 39,000  Level Los Angeles Center
10:58PM 33.2831 -114.7614 101° East 460 529 39,000  Level Los Angeles Center
10:59PM 33.2617 -114.6136 100° East 460 529 39,000  Level Los Angeles Center
11:00PM 33.2578 -114.5606 95° East 455 524 39,000  Level Albuquerque Center
11:01PM 33.2347 -114.4131 101° East 453 521 39,000  Level Albuquerque Center
11:02PM 33.2119 -114.2669 101° East 450 518 39,000  Level Albuquerque Center
11:03PM 33.1903 -114.1203 100° East 449 517 39,000  Level Albuquerque Center
11:04PM 33.1675 -113.9731 100° East 450 518 39,000  Level Albuquerque Center
11:05PM 33.1444 -113.8264 101° East 451 519 39,000  Level Albuquerque Center
11:06PM 33.1161 -113.6506 101° East 450 518 39,000  Level Albuquerque Center
11:07PM 33.0925 -113.5014 101° East 455 524 39,000  Level Albuquerque Center
11:08PM 33.0689 -113.3539 101° East 454 522 39,000  Level Albuquerque Center
11:09PM 33.0442 -113.2061 101° East 454 522 39,000 -98 Level Albuquerque Center
11:10PM 33.0206 -113.0594 101° East 451 519 38,800 -1,230 Descending Albuquerque Center
11:11PM 32.9967 -112.9158 101° East 444 511 36,500 -1,869 Descending Albuquerque Center
11:12PM 32.9736 -112.7739 101° East 438 504 35,000 -2,049 Descending Albuquerque Center
11:13PM 32.9428 -112.6356 105° East 433 498 32,300 -2,634 Descending Albuquerque Center
11:14PM 32.8894 -112.5006 115° Southeast 445 512 29,600 -2,557 Descending Albuquerque Center
11:15PM 32.8397 -112.3703 114° Southeast 438 504 27,100 -2,410 Descending Albuquerque Center
11:16PM 32.7883 -112.2381 115° Southeast 424 488 24,700 -2,262 Descending Albuquerque Center
11:17PM 32.7419 -112.1181 115° Southeast 409 471 22,500 -2,164 Descending Albuquerque Center
11:18PM 32.6972 -112.0022 115° Southeast 395 455 20,300 -2,000 Descending Albuquerque Center
11:19PM 32.6533 -111.8883 115° Southeast 385 443 18,400 -2,311 Descending Albuquerque Center
11:20PM 32.6044 -111.7719 116° Southeast 364 419 15,600 -2,571 Descending Albuquerque Center
11:21PM 32.5808 -111.7150 116° Southeast 359 413 14,500 -2,226 Descending Albuquerque Center
11:21PM 32.5617 -111.6594 112° Southeast 352 405 13,300 -2,100 Descending Albuquerque Center
11:22PM 32.5361 -111.6133 123° Southeast 353 406 12,400 -2,066 Descending Albuquerque Center
11:22PM 32.5064 -111.5672 127° Southeast 347 399 11,200 -2,262 Descending Albuquerque Center
11:23PM 32.4728 -111.5289 136° Southeast 344 396 10,100 -1,180 Descending Albuquerque Center
11:23PM 32.4397 -111.4883 134° Southeast 342 394 10,000 -787 Descending Albuquerque Center
11:24PM 32.4075 -111.4556 139° Southeast 328 377 9,300 -1,452 Descending Albuquerque Center
11:24PM 32.3783 -111.4194 134° Southeast 312 359 8,500 -1,800 Descending Albuquerque Center
11:25PM 32.3442 -111.3817 137° Southeast 305 351 7,500 -1,475 Descending Albuquerque Center
11:25PM 32.3164 -111.3506 137° Southeast 306 352 7,000 -492 Descending Albuquerque Center
11:26PM 32.2817 -111.3125 137° Southeast 305 351 7,000  Level Albuquerque Center
11:26PM 32.2572 -111.2817 133° Southeast 302 348 7,000  Level Albuquerque Center
11:27PM 32.2181 -111.2389 137° Southeast 300 345 7,000  Level Albuquerque Center
11:27PM 32.1967 -111.2142 136° Southeast 300 345 7,000  Level Albuquerque Center
11:28PM 32.1567 -111.1747 140° Southeast 299 344 7,000 -97 Level Albuquerque Center
11:28PM 32.1342 -111.1472 134° Southeast 302 348 6,900  Descending Albuquerque Center
11:29PM 32.0933 -111.1036 138° Southeast 262 302 7,000  Climbing Albuquerque Center
11:29PM 32.0833 -111.0861 124° Southeast 279 321 6,900 -400 Descending Albuquerque Center
11:30PM 32.0458 -111.0458 138° Southeast 243 280 6,600 -492 Descending Albuquerque Center
11:30PM 32.0375 -111.0300 122° Southeast 258 297 6,400 -1,082 Descending Albuquerque Center
11:31PM 32.0281 -110.9778 102° East 221 254 5,500 -1,279 Descending Albuquerque Center
11:31PM 32.0344 -110.9458 77° East 230 265 5,100 -787 Descending Albuquerque Center
11:32PM 32.0394 -110.9144 79° East 197 227 4,700 -194 Descending Albuquerque Center
11:32PM 32.0436 -110.8764 83° East 227 261 4,900 -1,100 Climbing Albuquerque Center
11:33PM 32.0667 -110.8794 354° North 147 169 3,600 -1,188 Descending Albuquerque Center
11:34PM 32.0950 -110.9144 314° West 136 157 2,900 -627 Descending Albuquerque Center